Regional Weather Roundup
Issued by NWS Newport/Morehead, NC

Current Version | Previous Version | Graphics & Text | Print | Product List | Glossary Off
Versions: 1 2 3 4 5 6 7 8 9 10 11 12 13 14 15 16 17 18 19 20 21 22 23 24 25 26 27 28 29 30 31 32 33 34 35 36 37 38 39 40 41 42 43 44 45 46 47 48 49 50

000
ASUS42 KMHX 050425
RWRMHX
WEATHER ROUNDUP FOR EASTERN NORTH CAROLINA
NATIONAL WEATHER SERVICE NEWPORT/MOREHEAD CITY NC
1200 AM EDT TUE MAY 05 2015

NOTE: "FAIR" INDICATES FEW OR NO CLOUDS BELOW 12,000 FEET
WITH NO SIGNIFICANT WEATHER AND/OR OBSTRUCTIONS TO VISIBILITY

NCZ015>017-031-032-045>047-102-103-050500-
NORTH COAST

CITY           SKY/WX    TMP DP  RH WIND       PRES   REMARKS
EDENTON        CLEAR     64  55  71 SW8       30.33S
ELIZABETH CITY CLEAR     65  52  62 S12       30.32S
KITTY HAWK     CLEAR     64  54  68 SW6       30.33S
MANTEO         CLEAR     64  56  76 SW9       30.35R

$$

NCZ045>047-081-094-103-104-050500-
CENTRAL COAST

CITY           SKY/WX    TMP DP  RH WIND       PRES   REMARKS
FRISCO         CLEAR     64  55  72 S7        30.35S
SWANQUARTER      N/A     66 N/A N/A S9        30.33S

$$

NCZ095-097-098-100-101-050500-
SOUTHERN COAST

CITY           SKY/WX    TMP DP  RH WIND       PRES   REMARKS
BEAUFORT       CLEAR     65  58  78 S6        30.36S
CEDAR ISLAND     N/A     64 N/A N/A S5        30.39S
JACKSONVILLE   CLEAR     57  55  93 CALM      30.35S
PINEY ISLAND   CLEAR    N/A N/A N/A S6        30.35S
WILMINGTON     CLEAR     60  56  86 CALM      30.35S


$$

NCZ011>013-027>030-043-044-078>080-089-090>093-098-050500-
COASTAL PLAIN

CITY           SKY/WX    TMP DP  RH WIND       PRES   REMARKS
AHOSKIE        CLEAR     64  51  61 S6        30.32S
CLINTON        CLEAR     62  55  76 CALM      30.35S
ELIZABETHTOWN  CLEAR     60  54  82 CALM      30.35S
GOLDSBORO      CLEAR     64  51  62 CALM      30.32S
GREENVILLE     CLEAR     64  54  68 SW9       30.34R
HAVELOCK       CLEAR     57  54  89 CALM      30.36S
KENANSVILLE    FAIR      56  51  83 CALM      30.36S
KINSTON        CLEAR     63  53  70 S7        30.35S
NEW BERN       CLEAR     58  53  84 CALM      30.36S
RICHLANDS      CLEAR     55  48  76 CALM      30.37R
ROCKY MOUNT    CLEAR     65  53  65 S7        30.33R
WASHINGTON     CLEAR     63  54  73 S5        30.35R
WHITEVILLE     CLEAR     58  55  89 CALM      30.34S

$$

AMZ130-135-150-152-154-156-158-170-250-252-270-ANZ085-086-088-633-658-670-050500-
MARINE OBSERVATIONS

STATION/POSITION TIME  TEMP    WIND        PRES    WAVE   SWELL
                       AIR SEA DIR/SP/G            HT/PER HT/PER
                 (UTC) (F)     (DEG/KT/KT) (MB)    (FT/S) (FT/S)
CHESAPEAKE LIGHT 0400   65     210/ 22/ 22 1026.0
64 E VA BEACH    0350   63 62  210/ 12/ 16 1026.4    3/ 9   3/ 9
DUCK             0300   67 53  200/ 10/ 14 1026.0
2 E DUCK         0311      57                N/A     2/10   2/13
OREGON INLET     0300   66 70  190/  7/  9 1027.4
13E OREGON INLT  0400      60                N/A     3/12   2/12
HATTERAS CG      0300   68 66  200/  5/  7 1027.3
DIAMOND BUOY     0350   74 77  200/ 14/ 17 1027.9    3/10   3/10
CAPE LOOKOUT     0400   68     190/  6/  6 1027.7
BEAUFORT LAB     0300   67 66  190/  3/  4 1027.2
27 SE WRIGHTSVLE 0400   69 72  170/ 10/ 14   N/A
5 SE WRIGHTSVLE  0308   70 69  180/  4/  6 1027.6
225 S CAPE HAT   0350   68 70  110/ 14/ 16 1027.7    5/10   3/10
41 SE CHARLESTON 0350   73 74  100/ 16/ 19 1026.2    4/ 4   2/11

$$



USA.gov is the U.S. government's official web portal to all federal, state and local government web resources and services.